Weather in Cherenchitsy

Russia / Novgorod Oblast     57°45′12″N   31°38′13″E
В апреле 2022 года жителям России запретили посещать сайт meteo.paraplan.net по решению Генеральной прокуратуры. Аудитория сайта уменьшилась в 10 раз. Владельцы сайта не видят смысла в поддержке погодного сервера в таких условиях. Сайт будет закрыт в октябре.
temp.,
°C
wind,
m/s
gust,
m/s
humid.,
%
clouds,
%
prec.,
mm/h
press.,
hPa
HPBL,
m
5 october, wed
wed500:00+5nw1195100 0.1 100841
03:00+5wnw1195100 0.2 100933
06:00+5wnw1295100 0.0 101049
09:00+6w1392100 0.0 1012138
12:00+9w3482100 0.0 1013666
15:00+9sw2588100 0.1 1013560
18:00+8sw249174 0.1 101478
21:00+8ssw2696100 0.1 1015234
6 october, thu
thu600:00+8s2696100 0.0 1015254
03:00+8s3797100 0.0 1014264
06:00+9ssw3998100 0.3 1014326
09:00+10ssw4119585 0.4 1013449
12:00+14ssw5108012 0.0 1012700
15:00+16ssw511730 0.0 1010910
18:00+14sw5127594 0.0 1010946
21:00+14w6137711 0.4 10111102
7 october, fri
fri700:00+11w5138325 0.0 10141001
03:00+11wsw51376100 0.1 10151556
06:00+11wsw51271100 0.0 10161052
09:00+12wsw6136967 0.1 10171341
12:00+14wsw6116563 0.1 10191500
15:00+14w5106441 0.1 10191471
18:00+12w4967100 0.0 1020634
21:00+11ssw3118232 0.0 1020384
8 october, sat
sat800:00+10sw41287100 0.0 1020464
03:00+9sw412906 0.0 1019457
06:00+8ssw4129017 0.0 1018397
09:00+9ssw4138150 0.0 1017514
12:00+13ssw5136698 0.0 1015860
15:00+14ssw61263100 0.0 10131044
18:00+13ssw61368100 0.0 1011866
21:00+12ssw51375100 0.0 1011848
9 october, sun
sun900:00+11ssw41284100 0.0 1010612
03:00+11sw41189100 0.2 1010594
06:00+10wsw4990100 0.1 1010559
09:00+9wsw3881100 0.1 10121046
12:00+10wsw4873100 0.1 10131101
15:00+12wsw47655 0.1 10141118
18:00+9sw377512 0.1 1015158
21:00+9sw4127783 0.1 1016495